Flag for Germany Weather past 2 weeks in Lübbecke, North Rhine-Westphalia, Germany

Now
61 °F

Partly sunny.


Feels Like: 61 °F
Forecast: 52 / 65 °F
Wind: 6 mph from West

Location: Bueckeburg

Current Time: Sep 1, 2014 at 9:26:49 PM

Latest Report: Sep 1, 2014 at 8:20 PM


Visibility: N/A

Pressure: 30.09 "Hg

Humidity: 88%

Dew point: 57 °F

Location of LübbeckeLocation

Historic Weather in Lübbecke — Graph

°F

Lübbecke temperature yesterday

Maximum temperature yesterday: 64 °F (at 2:20 PM)
Minimum temperature yesterday: 54 °F (at 4:20 AM)
Average temperature yesterday: 58 °F

Past Weeks' High & Low Weather Summary

 TemperatureHumidityPressure
High75 °F (Aug 28, 5:20 PM)100% (Aug 27, 3:20 AM)30.09 "Hg (Aug 27, 3:20 AM)
Low45 °F (Aug 27, 3:20 AM)33% (Aug 27, 6:20 PM)29.59 "Hg (Aug 18, 8:20 AM)
Average58 °F78%29.91 "Hg
* Reported Aug 17 8:20 PM — Sep 1 8:20 PM, Lübbecke, Weather by CustomWeather, © 2014

Note: Actual official high and low records may vary slightly from our data, if they occured in-between our weather recording intervals... More about our weather records

Advertising

Lübbecke weather history for previous 24 hours

 ConditionsComfort  
Time TempWeatherWind HumidityBarometerVisibility
8:20 PM
Sep 1
61 °FPartly sunny.6 mph88%30.09 "HgN/A
7:20 PM61 °FPartly sunny.7 mph88%30.09 "HgN/A
6:20 PM63 °FPartly sunny.7 mph83%30.09 "HgN/A
5:20 PM63 °FPartly sunny.6 mph88%30.09 "HgN/A
4:20 PM63 °FBroken clouds.2 mph88%30.09 "Hg5 mi
4:01 PM64 °FRain showers. Partly sunny.6 mph78%30.09 "Hg4 mi
3:20 PM64 °FPartly sunny.8 mph78%30.09 "HgN/A
2:20 PM64 °FScattered clouds.10 mph78%30.09 "HgN/A
1:20 PM64 °FPartly sunny.8 mph83%30.09 "HgN/A
12:20 PM61 °FBroken clouds.3 mph88%30.09 "HgN/A
11:20 AM59 °FFog.6 mph94%30.09 "Hg2 mi
10:20 AM57 °FPartly sunny.7 mph94%30.07 "Hg4 mi
9:20 AM57 °FPartly sunny.6 mph94%30.07 "Hg5 mi
8:20 AM55 °FBroken clouds.5 mph100%30.07 "Hg5 mi
7:20 AM55 °FLight rain. Fog.3 mph94%30.04 "HgN/A
6:20 AM54 °FFog.5 mph100%30.04 "HgN/A
5:20 AM50 °FPassing clouds.3 mph100%30.04 "HgN/A
4:20 AM52 °FPassing clouds.3 mph94%30.04 "HgN/A
3:20 AM52 °FPassing clouds.3 mph100%30.04 "HgN/A
2:20 AM52 °FPassing clouds.5 mph94%30.01 "HgN/A
1:20 AM54 °FPassing clouds.2 mph94%30.01 "HgN/A
12:20 AM52 °FPassing clouds.3 mph94%30.01 "HgN/A
11:20 PM
Aug 31
54 °FPassing clouds.1 mph94%29.98 "HgN/A
10:20 PM55 °FPassing clouds.6 mph88%29.98 "HgN/A
9:20 PM55 °FPassing clouds.6 mph88%29.98 "HgN/A
Weather by CustomWeather, © 2014

See weather overviewHow to use our weather pages